Location: Lawrence
(38.9720°N, 95.2350°W)
Time: 16:16:51
(UTC-05:00)

Amateur Radio Satellites - All Passes

Search period start: 25 June 2016 15:46
Search period end: 26 June 2016 15:46
Location: Lawrence, 38.9720°N, 95.2350°W

Satellite Date Start Highest point End Downlink Frequencies (MHz)
Time Altitude Azimuth
TISAT 1 25 Jun 15:59:33 16:01:11 12° 296° (WNW) 16:02:47 437.305
AIST 2 25 Jun 16:03:48 16:07:46 43° 244° (WSW) 16:11:42 435.215
ITAMSAT 1 25 Jun 16:04:12 16:09:03 40° 262° (W) 16:13:57 435.822/435.867
Cosmos 2504 25 Jun 16:04:56 16:12:37 51° 284° (WNW) 16:20:56 435.465 / 435.565
MOZHAYETS 4 25 Jun 16:18:38 16:21:57 19° 93° (E) 16:25:14
SWISSCUBE 25 Jun 16:19:22 16:23:52 41° 289° (WNW) 16:28:21 437.505
ISS 25 Jun 16:38:20 16:41:23 36° 32° (NNE) 16:44:26 145.825
ITUPSAT 1 25 Jun 16:44:08 16:48:10 27° 292° (WNW) 16:52:11 437.325
AO-7 25 Jun 16:44:17 16:52:26 58° 257° (WSW) 17:00:40 29.400- 29.500
BEESAT 25 Jun 16:45:32 16:49:28 26° 293° (WNW) 16:53:23 436.000
KKS-1 25 Jun 16:53:00 16:57:18 48° 100° (E) 17:01:36 437.445
SO-50 25 Jun 16:57:37 17:02:20 50° 116° (ESE) 17:07:03 436.795
RS-15 25 Jun 17:00:14 17:08:36 21° 346° (NNW) 17:17:13 29.354- 29.394
NOAA 18 25 Jun 17:13:22 17:15:41 13° 59° (ENE) 17:18:01 137.9125
HORYU 2 25 Jun 17:15:07 17:19:30 67° 74° (ENE) 17:23:55 437.375
NOAA 15 25 Jun 17:20:58 17:24:27 18° 63° (ENE) 17:27:55 137.62
AIST 1 25 Jun 17:33:37 17:37:22 29° 90° (E) 17:41:07
STARS 25 Jun 17:34:35 17:38:59 70° 102° (ESE) 17:43:22 437.465
CUBESAT XI-V 25 Jun 17:37:21 17:39:56 15° 91° (E) 17:42:29 437.345
Cubesat XI-IV 25 Jun 17:45:04 17:48:59 21° 64° (ENE) 17:52:57 437.490
BRITE-PL 25 Jun 17:49:35 17:53:56 28° 70° (ENE) 17:58:02 437.365/2234.400
MOZHAYETS 4 25 Jun 17:54:55 17:59:14 39° 289° (WNW) 18:03:33
ISS 25 Jun 18:15:04 18:17:42 22° 228° (SW) 18:20:18 145.825
CUTE-I 25 Jun 18:19:13 18:24:14 43° 70° (ENE) 18:29:17 437.470
DOVE 4 25 Jun 18:24:16 18:25:03 10° 64° (ENE) 18:25:49 437.250
JUGNU 25 Jun 18:30:18 18:31:57 11° 177° (S) 18:33:36 437.505
KKS-1 25 Jun 18:30:51 18:33:28 16° 295° (WNW) 18:36:04 437.445
LilacSat-2 25 Jun 18:39:01 18:42:43 56° 75° (ENE) 18:46:27 437.200
SO-50 25 Jun 18:39:15 18:43:04 22° 314° (NW) 18:46:55 436.795
GONETS M04 25 Jun 18:39:43 18:47:26 37° 86° (E) 18:55:08
GOMX 1 25 Jun 18:40:40 18:45:04 39° 72° (ENE) 18:49:12 467.674
NOAA 18 25 Jun 18:50:05 18:55:33 87° 256° (WSW) 19:01:04 137.9125
CUSAT 1 25 Jun 18:52:09 18:54:50 17° 66° (ENE) 18:57:09 437.405
NOAA 15 25 Jun 18:58:31 19:03:44 58° 259° (W) 19:08:58 137.62
Cosmos 2499 25 Jun 18:59:07 19:06:03 32° 83° (E) 19:13:22 435.465 / 435.565
AIST 1 25 Jun 19:11:42 19:14:58 21° 286° (WNW) 19:18:15
CUBESAT XI-V 25 Jun 19:13:07 19:17:36 50° 287° (WNW) 19:22:02 437.345
STARS 25 Jun 19:13:36 19:14:44 11° 298° (WNW) 19:15:51 437.465
STRAND 1 25 Jun 19:15:03 19:15:54 10° 89° (E) 19:16:44 437.568
RS-15 25 Jun 19:18:05 19:27:25 24° 23° (NNE) 19:36:47 29.354- 29.394
Cubesat XI-IV 25 Jun 19:23:33 19:28:42 48° 261° (W) 19:33:53 437.490
BRITE-PL 25 Jun 19:27:41 19:32:18 31° 263° (W) 19:36:40 437.365/2234.400
CINEMA 3 25 Jun 19:41:56 19:45:01 21° 68° (ENE) 19:48:08 145.822/145.860
HO-68 25 Jun 19:45:26 19:52:00 41° 65° (ENE) 19:58:35 435.675
CANX-2 25 Jun 19:55:25 19:59:10 30° 71° (ENE) 20:02:57 2200.000
DOVE 4 25 Jun 19:57:50 20:02:16 67° 259° (WSW) 20:06:30 437.250
CUTE-I 25 Jun 20:00:19 20:04:26 22° 266° (W) 20:08:35 437.470
CUBEBUG 2 25 Jun 20:04:01 20:04:49 10° 63° (ENE) 20:05:38 437.445
COMPASS 1 25 Jun 20:11:00 20:14:05 20° 68° (ENE) 20:17:11 437.405
CUTE 1.7 + AOD 2 25 Jun 20:15:43 20:19:47 45° 73° (ENE) 20:23:53 437.475
GOMX 1 25 Jun 20:19:53 20:23:14 19° 266° (W) 20:26:26 467.674
DANDE 25 Jun 20:24:33 20:29:55 89° 268° (W) 20:33:49 436.750
SEEDS 25 Jun 20:25:54 20:29:53 41° 73° (ENE) 20:33:54 437.485
M-CUBED/EXP-1 PRIME 25 Jun 20:26:27 20:28:51 19° 65° (ENE) 20:31:14 437.505
CUSAT 1 25 Jun 20:34:09 20:36:49 18° 274° (W) 20:39:06 437.405
GONETS M04 25 Jun 20:35:47 20:44:01 45° 285° (WNW) 20:52:17
ZACube-1 25 Jun 20:43:32 20:45:36 14° 64° (ENE) 20:47:42 437.345
STRAND 1 25 Jun 20:50:28 20:55:39 82° 285° (WNW) 21:00:47 437.568
Cosmos 2499 25 Jun 20:50:46 20:58:41 53° 283° (WNW) 21:07:11 435.465 / 435.565
UWE-3 25 Jun 20:55:22 20:58:54 27° 70° (ENE) 21:02:30 435.000/436.395/437.385
Oscar 11 25 Jun 20:58:29 21:01:50 22° 68° (ENE) 21:05:13 145.826/435.025
FUNcube-1 25 Jun 21:01:49 21:04:53 20° 67° (ENE) 21:08:00 145.935
AAUSAT CUBESAT 2 25 Jun 21:14:17 21:18:28 86° 82° (E) 21:22:42 437.432
CINEMA 3 25 Jun 21:18:24 21:22:01 29° 263° (W) 21:25:39 145.822/145.860
AUBIESAT-1 25 Jun 21:23:21 21:26:40 84° 248° (WSW) 21:30:00 437.475
SRMSAT 25 Jun 21:26:43 21:28:22 11° 181° (S) 21:30:01 437.500
RS-15 25 Jun 21:31:02 21:43:16 61° 52° (NE) 21:55:20 29.354- 29.394
CANX-2 25 Jun 21:31:46 21:35:02 21° 266° (W) 21:38:19 2200.000
HO-68 25 Jun 21:33:12 21:39:41 37° 262° (W) 21:46:13 435.675
CUBEBUG 2 25 Jun 21:36:46 21:40:51 64° 259° (W) 21:45:03 437.445
COMPASS 1 25 Jun 21:45:39 21:49:26 32° 263° (W) 21:53:14 437.405
CUTE 1.7 + AOD 2 25 Jun 21:53:32 21:55:50 14° 268° (W) 21:58:10 437.475
DELFI C3 25 Jun 21:53:36 21:57:21 39° 73° (ENE) 22:01:08 145.870
M-CUBED/EXP-1 PRIME 25 Jun 22:00:55 22:03:21 19° 259° (W) 22:05:47 437.505
SEEDS 25 Jun 22:03:17 22:05:45 15° 268° (W) 22:08:16 437.485
PRISM 25 Jun 22:07:04 22:11:09 73° 285° (WNW) 22:15:11 437.425
ZACube-1 25 Jun 22:17:24 22:21:26 49° 261° (W) 22:25:34 437.345
HUMSAT D 25 Jun 22:22:53 22:26:44 39° 72° (ENE) 22:30:40 437.325/437.525
AO-85 25 Jun 22:27:40 22:32:52 47° 115° (ESE) 22:37:57 145.980
UWE-3 25 Jun 22:32:06 22:35:21 22° 266° (W) 22:38:39 435.000/436.395/437.385
Oscar 11 25 Jun 22:33:59 22:37:47 30° 264° (W) 22:41:38 145.826/435.025
FUNcube-1 25 Jun 22:37:13 22:40:55 31° 264° (W) 22:44:42 145.935
ANTELSAT 25 Jun 22:38:07 22:40:57 16° 92° (E) 22:43:47 437.575/2403.000
YUBILEINY 25 Jun 22:56:32 22:59:50 12° 59° (ENE) 23:03:07 435.215
ESTCUBE 1 25 Jun 22:58:54 23:02:08 20° 66° (ENE) 23:05:22 437.505/2401.250
AISAT 25 Jun 23:16:19 23:19:26 19° 67° (ENE) 23:22:34 437.250
50 SAT 25 Jun 23:24:38 23:27:24 20° 69° (ENE) 23:30:12 437.505
TIGRISAT 25 Jun 23:29:20 23:33:52 53° 100° (E) 23:38:27 435.000
DELFI C3 25 Jun 23:30:07 23:32:22 14° 268° (W) 23:34:38 145.870
UNISAT 6 25 Jun 23:33:20 23:37:56 63° 101° (ESE) 23:42:34 437.425
UKube-1 25 Jun 23:34:01 23:36:55 18° 66° (ENE) 23:39:49 .
SPROUT 25 Jun 23:42:24 23:44:38 14° 65° (ENE) 23:46:52 437.525
RS-15 25 Jun 23:44:11 23:55:18 42° 253° (WSW) 00:06:16 29.354- 29.394
DX 1 25 Jun 23:46:52 23:50:40 30° 70° (ENE) 23:54:28 434.975-435.025
HUMSAT D 26 Jun 00:00:02 00:02:31 15° 268° (W) 00:05:02 437.325/437.525
Cosmos 2491 26 Jun 00:04:09 00:09:14 17° 78° (ENE) 00:14:18 435.465 / 435.565
AO-85 26 Jun 00:08:59 00:13:33 27° 312° (NW) 00:17:59 145.980
Cosmos 2504 26 Jun 00:09:32 00:11:44 11° 57° (ENE) 00:13:56 435.465 / 435.565
VELOX 1 26 Jun 00:10:41 00:15:05 72° 75° (ENE) 00:19:30 145.980
CUBEBUG 1 26 Jun 00:11:00 00:15:22 79° 75° (ENE) 00:19:44 437.445
ANTELSAT 26 Jun 00:13:24 00:17:52 48° 287° (WNW) 00:22:22 437.575/2403.000
BUGSAT 1 26 Jun 00:24:19 00:26:17 13° 93° (E) 00:28:14 437.445
NANOSAT C BR1 26 Jun 00:26:59 00:30:55 36° 98° (E) 00:34:50 145.865
QB50P1 26 Jun 00:28:05 00:32:05 39° 98° (E) 00:36:04 145.935-145.965
POPSAT HIP 1 26 Jun 00:30:57 00:35:00 41° 99° (E) 00:39:02 437.405
ESTCUBE 1 26 Jun 00:34:24 00:38:38 39° 262° (W) 00:42:55 437.505/2401.250
QB50P2 26 Jun 00:42:20 00:46:34 62° 101° (E) 00:50:47 145.880/145.840
POLYITAN 1 26 Jun 00:44:56 00:49:11 64° 101° (E) 00:53:26 437.675
DUCHIFAT 1 26 Jun 00:48:55 00:53:07 62° 101° (E) 00:57:18 145.980
YUBILEINY 26 Jun 00:49:39 00:58:28 68° 80° (E) 01:07:15 435.215
AISAT 26 Jun 00:51:34 00:55:39 37° 262° (W) 00:59:45 437.250
50 SAT 26 Jun 00:57:55 01:00:56 24° 264° (W) 01:04:00 437.505
TIGRISAT 26 Jun 01:07:26 01:10:06 15° 295° (WNW) 01:12:48 435.000
UKube-1 26 Jun 01:08:37 01:12:38 39° 261° (W) 01:16:42 .
UNISAT 6 26 Jun 01:11:55 01:14:07 13° 296° (WNW) 01:16:18 437.425
TISAT 1 26 Jun 01:12:23 01:16:10 35° 71° (ENE) 01:19:58 437.305
SPROUT 26 Jun 01:16:03 01:20:09 48° 260° (W) 01:24:17 437.525
DX 1 26 Jun 01:23:28 01:26:51 22° 265° (W) 01:30:15 434.975-435.025
SO-50 26 Jun 01:30:31 01:34:44 32° 50° (NE) 01:38:48 436.795
SWISSCUBE 26 Jun 01:47:59 01:51:29 21° 66° (ENE) 01:55:00 437.505
Cosmos 2491 26 Jun 01:55:59 02:04:48 88° 276° (W) 02:13:36 435.465 / 435.565
BUGSAT 1 26 Jun 01:57:58 02:01:51 44° 287° (WNW) 02:05:47 437.445
Cosmos 2504 26 Jun 01:58:24 02:07:14 60° 79° (E) 02:15:40 435.465 / 435.565
JAS-2 26 Jun 01:59:48 02:05:32 69° 102° (ESE) 02:10:46 435.910
PCSat 26 Jun 02:01:56 02:04:22 13° 103° (ESE) 02:06:48 145.827
NANOSAT C BR1 26 Jun 02:03:28 02:06:22 18° 293° (WNW) 02:09:16 145.865
QB50P1 26 Jun 02:04:47 02:07:32 17° 294° (WNW) 02:10:17 145.935-145.965
POPSAT HIP 1 26 Jun 02:07:49 02:10:26 16° 294° (WNW) 02:13:04 437.405
ITUPSAT 1 26 Jun 02:11:48 02:16:00 31° 69° (ENE) 02:20:13 437.325
BEESAT 26 Jun 02:12:46 02:17:00 32° 69° (ENE) 02:21:15 436.000
Gurwin Techsat 1B 26 Jun 02:16:48 02:19:56 16° 91° (E) 02:23:03 435.225
QB50P2 26 Jun 02:20:26 02:21:50 11° 296° (WNW) 02:23:12 145.880/145.840
Oscar 19 26 Jun 02:22:51 02:27:42 42° 99° (E) 02:32:32 437.125/150
POLYITAN 1 26 Jun 02:23:09 02:24:26 11° 297° (WNW) 02:25:43 437.675
DUCHIFAT 1 26 Jun 02:26:57 02:28:16 11° 297° (WNW) 02:29:35 145.980
YUBILEINY 26 Jun 02:47:49 02:54:26 24° 279° (W) 03:01:03 435.215
TISAT 1 26 Jun 02:49:10 02:51:55 17° 266° (W) 02:54:42 437.305
SO-50 26 Jun 03:11:11 03:15:04 27° 248° (WSW) 03:18:51 436.795
MOZHAYETS 4 26 Jun 03:19:55 03:22:49 17° 65° (ENE) 03:25:44
SWISSCUBE 26 Jun 03:24:29 03:28:58 41° 261° (W) 03:33:31 437.505
BEESAT 3 26 Jun 03:32:24 03:36:07 42° 115° (ESE) 03:39:50 437.485
O/OREOS (USA 219) 26 Jun 03:37:06 03:41:26 48° 107° (ESE) 03:45:46 437.305
PCSat 26 Jun 03:41:37 03:47:02 76° 298° (WNW) 03:52:29 145.827
JAS-2 26 Jun 03:46:41 03:49:50 15° 302° (WNW) 03:52:50 435.910
ITUPSAT 1 26 Jun 03:49:49 03:53:48 26° 264° (W) 03:57:49 437.325
KKS-1 26 Jun 03:49:50 03:53:55 38° 71° (ENE) 03:58:01 437.445
BEESAT 26 Jun 03:50:53 03:54:47 25° 265° (W) 03:58:42 436.000
Cosmos 2504 26 Jun 03:52:45 03:59:57 29° 278° (W) 04:06:58 435.465 / 435.565
Gurwin Techsat 1B 26 Jun 03:55:00 04:00:15 61° 287° (WNW) 04:05:29 435.225
Cosmos 2491 26 Jun 03:57:29 04:02:54 17° 297° (WNW) 04:08:21 435.465 / 435.565
Oscar 19 26 Jun 04:02:49 04:06:44 22° 295° (WNW) 04:10:37 437.125/150
BEESAT 2 26 Jun 04:04:11 04:08:02 53° 117° (ESE) 04:11:55 435.950
ITAMSAT 1 26 Jun 04:17:45 04:23:01 80° 104° (ESE) 04:28:14 435.822/435.867
STARS 26 Jun 04:29:51 04:34:05 52° 73° (ENE) 04:38:20 437.465
CUBESAT XI-V 26 Jun 04:40:06 04:42:28 14° 64° (ENE) 04:44:52 437.345
AO-7 26 Jun 04:47:03 04:55:13 54° 102° (ESE) 05:03:19 29.400- 29.500
GONETS M04 26 Jun 04:52:12 04:57:21 17° 62° (ENE) 05:02:28
MOZHAYETS 4 26 Jun 04:55:07 04:59:34 48° 261° (W) 05:04:03
Cosmos 2499 26 Jun 04:55:49 04:56:41 10° 55° (NE) 04:57:32 435.465 / 435.565
HORYU 2 26 Jun 05:08:46 05:11:08 14° 92° (E) 05:13:31 437.375
BEESAT 3 26 Jun 05:11:18 05:13:59 17° 313° (NW) 05:16:40 437.485
O/OREOS (USA 219) 26 Jun 05:18:16 05:21:07 16° 304° (WNW) 05:23:57 437.305
AIST 1 26 Jun 05:18:32 05:22:48 84° 80° (E) 05:27:03
KKS-1 26 Jun 05:27:34 05:30:36 18° 266° (W) 05:33:39 437.445
PCSat 26 Jun 05:28:53 05:31:21 13° 318° (NW) 05:33:50 145.827
BEESAT 2 26 Jun 05:43:48 05:46:10 15° 315° (NW) 05:48:34 435.950
ITAMSAT 1 26 Jun 05:59:27 06:01:46 13° 300° (WNW) 06:04:04 435.822/435.867
AIST 2 26 Jun 05:59:47 06:03:45 49° 117° (ESE) 06:07:45 435.215
STARS 26 Jun 06:08:47 06:10:44 13° 268° (W) 06:12:42 437.465
CUBESAT XI-V 26 Jun 06:14:40 06:19:19 61° 259° (W) 06:24:00 437.345
STRAND 1 26 Jun 06:28:41 06:31:35 15° 62° (ENE) 06:34:29 437.568
CUTE-I 26 Jun 06:38:19 06:42:04 19° 93° (E) 06:45:46 437.470
AO-7 26 Jun 06:40:19 06:47:37 35° 300° (WNW) 06:54:54 29.400- 29.500
Cosmos 2499 26 Jun 06:43:20 06:52:01 58° 78° (ENE) 07:00:11 435.465 / 435.565
HORYU 2 26 Jun 06:43:36 06:47:58 50° 287° (WNW) 06:52:18 437.375
GOMX 1 26 Jun 06:46:01 06:46:35 10° 91° (E) 06:47:08 467.674
GONETS M04 26 Jun 06:46:44 06:55:30 85° 83° (E) 07:04:16
AO-85 26 Jun 07:01:32 07:05:24 26° 48° (NE) 07:08:59 145.980
NOAA 18 26 Jun 07:13:27 07:18:45 44° 100° (E) 07:24:01 137.9125
NOAA 15 26 Jun 07:14:48 07:19:59 59° 101° (E) 07:25:08 137.62
BRITE-PL 26 Jun 07:33:06 07:37:16 87° 292° (WNW) 07:41:27 437.365/2234.400
AIST 2 26 Jun 07:39:45 07:42:30 17° 314° (NW) 07:45:16 435.215
Cubesat XI-IV 26 Jun 07:41:42 07:47:07 75° 103° (ESE) 07:52:29 437.490
DANDE 26 Jun 07:46:21 07:52:23 23° 84° (E) 07:58:18 436.750
LilacSat-2 26 Jun 07:47:32 07:51:24 77° 283° (WNW) 07:55:17 437.200
CUSAT 1 26 Jun 07:48:21 07:55:43 43° 92° (E) 08:02:14 437.405
DOVE 4 26 Jun 07:57:27 08:01:19 32° 98° (E) 08:05:21 437.250
STRAND 1 26 Jun 08:05:04 08:10:10 66° 258° (WSW) 08:15:19 437.568
CUTE-I 26 Jun 08:17:09 08:22:22 52° 289° (WNW) 08:27:33 437.470
GOMX 1 26 Jun 08:20:54 08:25:00 58° 285° (WNW) 08:29:14 467.674
Cosmos 2499 26 Jun 08:37:20 08:44:32 30° 277° (W) 08:51:26 435.465 / 435.565
AO-85 26 Jun 08:41:59 08:45:49 29° 248° (WSW) 08:49:23 145.980
PHONESAT 2.4 26 Jun 08:43:12 08:46:09 44° 158° (SSE) 08:49:06 2401.200-2431.200
GONETS M04 26 Jun 08:45:51 08:51:07 18° 282° (WNW) 08:56:24
NOAA 18 26 Jun 08:54:43 08:59:06 25° 296° (WNW) 09:03:29 137.9125
PRISM 26 Jun 08:54:50 08:58:58 66° 75° (ENE) 09:03:06 437.425
NOAA 15 26 Jun 08:55:54 08:59:16 17° 297° (WNW) 09:02:36 137.62
AAUSAT CUBESAT 2 26 Jun 08:59:16 09:01:35 14° 92° (E) 09:03:53 437.432
HO-68 26 Jun 09:01:20 09:08:16 47° 100° (E) 09:15:08 435.675
CINEMA 3 26 Jun 09:12:42 09:17:12 65° 101° (E) 09:21:53 145.822/145.860
CANX-2 26 Jun 09:16:43 09:21:01 72° 101° (E) 09:25:17 2200.000
ISS 26 Jun 09:17:39 09:20:03 19° 131° (SE) 09:22:28 145.825
Cubesat XI-IV 26 Jun 09:23:43 09:26:30 14° 299° (WNW) 09:29:17 437.490
DANDE 26 Jun 09:26:07 09:34:30 79° 280° (W) 09:42:36 436.750
CUBEBUG 2 26 Jun 09:28:31 09:32:32 29° 96° (E) 09:36:37 437.445
COMPASS 1 26 Jun 09:29:16 09:33:16 41° 98° (E) 09:37:13 437.405
CUSAT 1 26 Jun 09:30:31 09:37:46 38° 285° (WNW) 09:44:11 437.405
DOVE 4 26 Jun 09:35:39 09:38:51 21° 291° (WNW) 09:42:09 437.250
CUTE 1.7 + AOD 2 26 Jun 09:37:17 09:41:35 75° 284° (WNW) 09:45:50 437.475
ANTELSAT 26 Jun 09:37:28 09:38:57 12° 63° (ENE) 09:40:26 437.575/2403.000
M-CUBED/EXP-1 PRIME 26 Jun 09:39:32 09:42:33 21° 101° (ESE) 09:45:43 437.505
SEEDS 26 Jun 09:46:14 09:50:30 83° 282° (WNW) 09:54:43 437.485
ZACube-1 26 Jun 10:06:37 10:10:45 33° 97° (E) 10:14:53 437.345
PHONESAT 2.4 26 Jun 10:19:40 10:22:43 67° 354° (N) 10:25:48 2401.200-2431.200
UWE-3 26 Jun 10:21:14 10:25:49 76° 102° (ESE) 10:30:27 435.000/436.395/437.385
Oscar 11 26 Jun 10:21:43 10:26:00 51° 100° (E) 10:30:13 145.826/435.025
FUNcube-1 26 Jun 10:25:29 10:29:55 51° 99° (E) 10:34:21 145.935
TIGRISAT 26 Jun 10:27:01 10:30:58 38° 71° (ENE) 10:35:00 435.000
UNISAT 6 26 Jun 10:31:05 10:35:10 45° 73° (ENE) 10:39:20 437.425
AAUSAT CUBESAT 2 26 Jun 10:33:18 10:37:15 41° 287° (WNW) 10:41:10 437.432
AUBIESAT-1 26 Jun 10:36:13 10:40:07 84° 108° (ESE) 10:44:19 437.475
HO-68 26 Jun 10:49:28 10:55:42 33° 297° (WNW) 11:01:56 435.675
PCSat 26 Jun 10:49:54 10:51:39 11° 40° (NE) 10:53:24 145.827
CINEMA 3 26 Jun 10:51:59 10:53:51 12° 295° (WNW) 10:55:44 145.822/145.860
ISS 26 Jun 10:53:11 10:56:18 41° 327° (NNW) 10:59:25 145.825
CUBEBUG 2 26 Jun 11:05:14 11:09:02 26° 291° (WNW) 11:12:54 437.445
COMPASS 1 26 Jun 11:05:57 11:08:27 16° 294° (WNW) 11:10:58 437.405
DELFI C3 26 Jun 11:06:51 11:10:51 79° 102° (ESE) 11:14:49 145.870
ANTELSAT 26 Jun 11:10:51 11:15:04 62° 259° (WSW) 11:19:24 437.575/2403.000
DANDE 26 Jun 11:13:19 11:18:22 17° 296° (WNW) 11:23:17 436.750
M-CUBED/EXP-1 PRIME 26 Jun 11:13:46 11:17:03 28° 293° (WNW) 11:20:33 437.505
NANOSAT C BR1 26 Jun 11:18:23 11:21:41 23° 69° (ENE) 11:25:01 145.865
QB50P1 26 Jun 11:19:41 11:23:07 25° 69° (ENE) 11:26:34 145.935-145.965
POPSAT HIP 1 26 Jun 11:22:34 11:26:04 27° 69° (ENE) 11:29:36 437.405
QB50P2 26 Jun 11:33:46 11:37:38 38° 72° (ENE) 11:41:33 145.880/145.840
POLYITAN 1 26 Jun 11:36:21 11:40:16 39° 72° (ENE) 11:44:11 437.675
DUCHIFAT 1 26 Jun 11:39:37 11:43:27 37° 72° (ENE) 11:47:19 145.980
HUMSAT D 26 Jun 11:42:29 11:46:49 90° 206° (SSW) 11:51:08 437.325/437.525
ZACube-1 26 Jun 11:43:19 11:46:49 22° 292° (WNW) 11:50:21 437.345
BEESAT 3 26 Jun 11:51:09 11:54:04 19° 48° (NE) 11:56:57 437.485
RS-15 26 Jun 11:53:29 12:03:38 41° 106° (ESE) 12:14:15 29.354- 29.394
PHONESAT 2.4 26 Jun 11:56:23 11:59:28 79° 12° (NNE) 12:02:34 2401.200-2431.200
YUBILEINY 26 Jun 11:58:06 12:01:59 14° 76° (ENE) 12:05:52 435.215
Oscar 11 26 Jun 11:59:24 12:01:40 14° 295° (WNW) 12:03:55 145.826/435.025
UWE-3 26 Jun 12:00:25 12:01:39 11° 297° (WNW) 12:02:53 435.000/436.395/437.385
CUBEBUG 1 26 Jun 12:02:06 12:04:40 15° 93° (E) 12:07:13 437.445
FUNcube-1 26 Jun 12:03:05 12:05:43 15° 295° (WNW) 12:08:22 145.935
VELOX 1 26 Jun 12:03:27 12:05:54 15° 93° (E) 12:08:20 145.980
TIGRISAT 26 Jun 12:05:02 12:07:49 17° 267° (W) 12:10:38 435.000
Cosmos 2491 26 Jun 12:08:10 12:16:23 44° 75° (ENE) 12:24:33 435.465 / 435.565
JAS-2 26 Jun 12:09:06 12:15:43 33° 66° (ENE) 12:21:53 435.910
UNISAT 6 26 Jun 12:09:50 12:12:09 14° 269° (W) 12:14:29 437.425
BEESAT 2 26 Jun 12:23:39 12:26:53 23° 49° (NE) 12:30:06 435.950
50 SAT 26 Jun 12:27:40 12:30:54 28° 97° (E) 12:34:05 437.505
ESTCUBE 1 26 Jun 12:27:47 12:32:08 46° 99° (E) 12:36:26 437.505/2401.250
PCSat 26 Jun 12:30:42 12:36:07 66° 60° (ENE) 12:41:29 145.827
ISS 26 Jun 12:32:06 12:33:26 12° 346° (NNW) 12:34:45 145.825
AISAT 26 Jun 12:42:33 12:46:43 42° 99° (E) 12:50:54 437.250
BUGSAT 1 26 Jun 12:46:04 12:50:06 79° 258° (WSW) 12:54:07 437.445
NANOSAT C BR1 26 Jun 12:53:46 12:57:17 26° 264° (W) 13:00:51 145.865
QB50P1 26 Jun 12:55:24 12:58:49 24° 264° (W) 13:02:16 145.935-145.965
UKube-1 26 Jun 12:56:43 13:00:41 35° 98° (E) 13:04:37 .
POPSAT HIP 1 26 Jun 12:58:28 13:01:48 23° 265° (W) 13:05:10 437.405
SPROUT 26 Jun 13:03:17 13:07:01 29° 96° (E) 13:10:46 437.525
QB50P2 26 Jun 13:10:59 13:13:35 16° 267° (W) 13:16:12 145.880/145.840
DX 1 26 Jun 13:11:33 13:15:52 67° 102° (ESE) 13:20:10 434.975-435.025
POLYITAN 1 26 Jun 13:13:42 13:16:13 16° 267° (W) 13:18:46 437.675
DUCHIFAT 1 26 Jun 13:16:40 13:19:17 16° 267° (W) 13:21:54 145.980
BEESAT 3 26 Jun 13:28:13 13:31:52 37° 245° (WSW) 13:35:31 437.485
PHONESAT 2.4 26 Jun 13:33:11 13:35:56 30° 206° (SSW) 13:38:41 2401.200-2431.200
Gurwin Techsat 1B 26 Jun 13:36:25 13:40:33 23° 65° (ENE) 13:44:40 435.225
CUBEBUG 1 26 Jun 13:37:03 13:41:08 42° 288° (WNW) 13:45:12 437.445
Oscar 19 26 Jun 13:38:22 13:43:23 55° 72° (ENE) 13:48:24 437.125/150
VELOX 1 26 Jun 13:38:22 13:42:35 46° 288° (WNW) 13:46:47 145.980
O/OREOS (USA 219) 26 Jun 13:48:03 13:52:33 77° 68° (ENE) 13:57:01 437.305
YUBILEINY 26 Jun 13:48:34 13:57:14 80° 95° (E) 14:06:01 435.215
JAS-2 26 Jun 13:52:55 14:00:26 51° 261° (W) 14:07:26 435.910
AO-7 26 Jun 13:57:32 14:01:25 14° 47° (NE) 14:05:18 29.400- 29.500
ITAMSAT 1 26 Jun 13:58:26 14:00:53 13° 60° (ENE) 14:03:21 435.822/435.867
BEESAT 2 26 Jun 14:01:13 14:04:44 30° 246° (WSW) 14:08:14 435.950
50 SAT 26 Jun 14:01:54 14:04:21 17° 292° (WNW) 14:06:47 437.505
RS-15 26 Jun 14:04:18 14:15:33 60° 309° (NW) 14:27:29 29.354- 29.394
Cosmos 2491 26 Jun 14:05:15 14:13:03 39° 274° (W) 14:20:51 435.465 / 435.565
ESTCUBE 1 26 Jun 14:05:45 14:08:33 16° 295° (WNW) 14:11:19 437.505/2401.250
PCSat 26 Jun 14:15:45 14:18:54 16° 256° (WSW) 14:22:01 145.827
AISAT 26 Jun 14:20:03 14:22:52 17° 294° (WNW) 14:25:39 437.250
AIST 2 26 Jun 14:22:29 14:25:54 24° 49° (NE) 14:29:18 435.215
TISAT 1 26 Jun 14:32:24 14:36:37 77° 102° (ESE) 14:40:49 437.305
UKube-1 26 Jun 14:33:24 14:36:28 19° 294° (WNW) 14:39:31 .
Cosmos 2504 26 Jun 14:34:38 14:42:13 50° 89° (E) 14:50:22 435.465 / 435.565
SPROUT 26 Jun 14:39:29 14:42:49 22° 292° (WNW) 14:46:08 437.525
DX 1 26 Jun 14:50:17 14:51:29 11° 298° (WNW) 14:52:41 434.975-435.025
Gurwin Techsat 1B 26 Jun 15:15:10 15:20:12 43° 261° (W) 15:25:15 435.225
Oscar 19 26 Jun 15:19:48 15:23:01 17° 268° (W) 15:26:13 437.125/150
SWISSCUBE 26 Jun 15:25:29 15:30:12 55° 100° (E) 15:34:53 437.505
ITAMSAT 1 26 Jun 15:34:28 15:39:40 77° 257° (WSW) 15:44:55 435.822/435.867
